Regional Weather Roundup
Issued by NWS

Home | Current Version | Previous Version | Text Only | Print | Product List | Glossary On
Versions: 1 2 3 4 5 6 7 8 9 10 11 12 13 14 15 16 17 18 19 20 21 22 23 24 25 26 27 28 29 30 31 32 33 34 35 36 37 38 39 40 41 42 43 44 45 46 47 48 49 50
000
ASHW40 PHFO 271410
RWRHI

WEATHER ROUNDUP FOR HAWAII
NATIONAL WEATHER SERVICE HONOLULU HI
400 AM HST TUE JAN 27 2015

THIS IS AN AUTOMATED REPORT THAT HAS NOT BEEN QUALITY CONTROLLED.

NOTE..."FAIR" INDICATES FEW OR NO CLOUDS BELOW 12,000 FEET WITH NO
SIGNIFICANT WEATHER AND/OR OBSTRUCTIONS TO VISIBILITY.

* - THESE SITES REPORT LIMITED FIELDS

HIZ001>004-271500-
KAUAI-NIIHAU-

CITY           SKY/WX    TMP DP  RH WIND       PRES   REMARKS
LIHUE APT      PTCLDY    72  62  71 NE13      29.97S
PORT ALLEN*      N/A     66 N/A N/A E5          N/A
POIPU*           N/A     68 N/A N/A N5G12       N/A
PRINCEVILLE*     N/A     64 N/A N/A MISG        N/A
KOKOLE POINT*  NOT AVBL
MOLOAA DAIRY*  NOT AVBL
WAIMEA HTS*    NOT AVBL
PUU OPAE*      NOT AVBL
PUU LUA*       NOT AVBL
MAKAHA RIDGE*  NOT AVBL
$$

HIZ005>011-271500-
OAHU-

CITY           SKY/WX    TMP DP  RH WIND       PRES   REMARKS
HONOLULU       PTCLDY    66  61  84 CALM      29.94F
KALAELOA       CLEAR     63  58  83 CALM      29.95F
KANEOHE MCB    CLOUDY    72  62  71 E7        29.95F
WHEELER FIELD  FAIR      59  56  90 W3        29.95F
BELLOWS*       NOT AVBL
KAHUKU*        NOT AVBL
WHEELER*       NOT AVBL
WAIANAE HARBOR NOT AVBL
DILLINGHAM*      N/A     57  57 100 MISG        N/A
KAHUKU TRN*      N/A     66  63  88 E7G18       N/A
KAWAILOA*        N/A     64  61  88 E8G18       N/A
KII*             N/A     70  63  78 E9G24       N/A
MAKUA RANGE*     N/A     63  57  82 SE5         N/A
OAHU FOREST NW NOT AVBL
SCHOFIELD BRK*   N/A     55  54  94 MISG        N/A
SCHOFIELD S*   NOT AVBL
WAIANAE VLY*   NOT AVBL
KUAOKALA*      NOT AVBL
HONOULIUULI*   NOT AVBL
MOKUOLOE IS*   NOT AVBL
PALEHUA*       NOT AVBL
WAIAWA PHB*    NOT AVBL
$$

HIZ012>013-271500-
MOLOKAI-

CITY           SKY/WX    TMP DP  RH WIND       PRES   REMARKS
MOLOKAI AIRPT  CLEAR     61  57  87 CALM      29.95F
KALAUPAPA      NOT AVBL
MAKAPULAPAI*   NOT AVBL
MOLOKAI 1*     NOT AVBL
PUU ALII*      NOT AVBL
$$

HIZ016-271500-
KAHOOLAWE-

CITY           SKY/WX    TMP DP  RH WIND       PRES   REMARKS
KAHOOLAWE*     NOT AVBL
HAKIOAWA*      NOT AVBL
HONOKANAIA*      N/A     69  59  69 N10G16    29.95F
KANELOA*         N/A    N/A N/A N/A MISG      29.16F
KEALIALALO*    NOT AVBL
LUA MAKIKA*    NOT AVBL
$$

HIZ014>015-271500-
LANAI-

CITY           SKY/WX    TMP DP  RH WIND       PRES   REMARKS
LANAI CITY     FAIR      63  61  94 NE6       29.98F
LANAI 1*       NOT AVBL
$$

HIZ017>028-271500-
MAUI-

CITY           SKY/WX    TMP DP  RH WIND       PRES   REMARKS
KAHULUI        CLEAR     59  56  89 S5        29.94F
KAPALUA-W MAUI NOT AVBL
HANA AIRPORT   CLOUDY    66  63  88 S3        29.98F
HANA*          NOT AVBL
HALEAKALA SUMM   N/A     48  16  27 SE20G35     N/A
MAALAEA BAY*   NOT AVBL
HALEAKALA*     NOT AVBL
KAUPO GAP*     NOT AVBL
KULA 1*        NOT AVBL
$$

HIZ023>026-271500-
BIG ISLAND OF HAWAII COAST AND LOWER SLOPES-

CITY           SKY/WX    TMP DP  RH WIND       PRES   REMARKS
KAILUA KONA    CLOUDY    75  66  73 E6        29.90S
HILO           PTCLDY    65  60  84 SW8       29.96S
HONOKAA*       NOT AVBL
KAWAIHAE MWT*  NOT AVBL
KAWAIHAE*        N/A     72 N/A N/A E3          N/A
SOUTH POINT*   NOT AVBL
UPOLU AIRPORT* NOT AVBL
KAMUELA*       NOT AVBL
HAKALAU*         N/A    N/A N/A N/A W6          N/A
KALOKO-HONOKO* NOT AVBL
PALI 2*          N/A     57  52  82 N10G18      N/A
KEALAKOMO*       N/A     72  59  64 VRB15G21    N/A
KAUPULEHU*     NOT AVBL
KAPAPALA*        N/A     53  51  92 N1G7        N/A
LOWER KAHUKU*  NOT AVBL
PUHE CS*       NOT AVBL
PUHO CS*       NOT AVBL
PTA KEAMUKU*     N/A     54  50  87 CALM        N/A
WAIKOLOA*      NOT AVBL
$$

HIZ027>028-271500-
BIG ISLAND OF HAWAII INTERIOR AND SUMMMITS-

CITY           SKY/WX    TMP DP  RH WIND       PRES   REMARKS
BRADSHAW FIELD CLOUDY    42  29  59 SE5       30.21F
MK VISITOR CEN NOT AVBL
MAUNA KEA*       N/A     37   1  22 CALM        N/A
MAUNA LOA*       N/A     41  10  28 MISG        N/A
MAUNA LOA 1*   NOT AVBL
PTA KIPUKA*      N/A     43  37  81 SE5         N/A
PTA RANGE 17*    N/A    N/A N/A N/A E6          N/A
PTA WEST*        N/A     48  34  57 SE12        N/A
NENE CABIN*    NOT AVBL
AHUMOA*        NOT AVBL
PTA PORTABLE*  NOT AVBL
PUU MALI*      NOT AVBL
$$

HIC003-271500-
NORTHWEST ISLANDS-

CITY           SKY/WX    TMP DP  RH WIND       PRES   REMARKS
MIDWAY ISLAND  PTCLDY    59  46  63 CALM      30.15F
MIDWAY NOS*    NOT AVBL
FRENCH FRIGATE NOT AVBL
$$

PHZ110>124-180-271500-
BUOY REPORTS

STATION/POSITION TIME  TEMP    WIND        PRES    WAVE   SWELL
                       AIR SEA DIR/SP/G            HT/PER HT/DIR
                 (UTC) (F)     (DEG/KT/KT) (MB)    (FT/S) (FT/D)
BUOY 51001       NOT AVBL
BUOY 51101       1400   69 72   40/ 12/ 14 1015.6F   7/19   7/280
BUOY 51100       1300   71 74  110/ 10/ 14 1016.2
BUOY 51003       1300   76 78   70/ 14/ 16 1013.0F   8/ 8   7
BUOY 51004       1329   75 78   50/ 16/ 19 1012.0S   8/13
BARBERS PT BUOY  NOT AVBL
WAIMEA BAY BUOY  1400      76                N/A     5/12   3/340
KAILUA BAY BUOY  1400      76                N/A     5/12   2/350
LANAI BUOY       1400      77                N/A     3/13   2/260
BARBERS PT 2     1400      77                N/A     5/13   3/250
PAUWELA MAUI     1400      76                N/A     7/13
HILO             1400      77                N/A     7/13   3/340
KANEOHE BAY BUOY 1400      75                N/A     5/12   2/340
HANALEI KAUAI    NOT AVBL
KAHULUI HARBOR   1400   72 76   30/ 12/ 15 1013.8F
HONOLULU HARBOR  1400   69 76   40/  1/  2 1013.7F
KILO NALU        NOT AVBL
HILO HARBOR      1400   68 76  240/  9/ 12 1014.0F
MOKUOLOE         1400      74              1014.1F
NAWILIWILI       NOT AVBL
WHOTS BUOY       NOT AVBL
BUOY 51028       NOT AVBL
$$

......................KEY........................................
  SKY/WX - SKY CONDITIONS/PRESENT WEATHER
  TMP    - TEMPERATURE IN FAHRENHEIT
  DWPT   - DEWPOINT IN FAHRENHEIT
  RH     - RELATIVE HUMIDITY IN PERCENT
  WIND   - DIRECTION AND SPEED /MPH FOR ISLANDS...KTS FOR BUOYS/
  PRES   - MEAN SEA LEVEL PRESSURE IN INCHES OF HG
  VSB    - VISIBILITY IN MILES
  HX     - HEAT INDEX
  WCI    - WIND CHILL INDEX
  VRB    - VARIABLE WIND DIRECTION
  N/A    - NOT AVAILABLE



USA.gov is the U.S. government's official web portal to all federal, state and local government web resources and services.